QPF
0.00 0.00 0.00 0.00 0.00 0.00 0.00 0.00 0.00 0.00 0.00 0.00 0.00 0.00 0.00 0.00 0.00 0.00 0.00 0.00 0.00 0.00 0.00 0.00 0.00 0.00 0.00 0.00 0.00 0.00 0.00 0.01 0.01 0.01 0.01 0.01 0.00 0.00 0.00 0.00 0.00 0.00 0.00 0.00 0.00 0.00 0.00 0.00 0.00
0.00 0.00 0.00 0.00 0.00 0.00 0.00 0.00 0.00 0.00 0.00 0.00 0.00 0.00 0.00 0.00 0.00 0.00 0.00 0.00 0.00 0.00 0.00 0.00 0.00 0.00 0.00 0.01 0.00 0.00 0.01 0.01 0.01 0.01 0.01 0.00 0.00 0.00 0.00 0.00 0.00 0.00 0.00 0.00 0.00 0.00 0.00 0.00 0.00
0.00 0.00 0.00 0.00 0.00 0.00 0.00 0.00 0.00 0.00 0.00 0.00 0.00 0.00 0.00 0.00 0.00 0.00 0.00 0.00 0.00 0.00 0.00 0.00 0.00 0.00 0.00 0.01 0.01 0.01 0.01 0.01 0.01 0.01 0.00 0.00 0.00 0.00 0.00 0.00 0.00 0.00 0.00 0.00 0.00 0.00 0.00 0.00 0.00
0.00 0.00 0.00 0.00 0.00 0.00 0.00 0.00 0.00 0.00 0.00 0.00 0.00 0.00 0.00 0.00 0.00 0.00 0.00 0.00 0.00 0.00 0.00 0.00 0.00 0.00 0.00 0.00 0.01 0.01 0.01 0.01 0.01 0.00 0.00 0.00 0.00 0.00 0.00 0.00 0.00 0.00 0.00 0.00 0.00 0.00 0.00 0.00 0.00
0.00 0.00 0.00 0.00 0.00 0.00 0.00 0.00 0.00 0.00 0.00 0.00 0.00 0.00 0.00 0.00 0.00 0.00 0.00 0.00 0.00 0.00 0.00 0.00 0.00 0.00 0.00 0.00 0.01 0.01 0.01 0.00 0.00 0.00 0.00 0.00 0.00 0.00 0.00 0.00 0.00 0.00 0.00 0.00 0.00 0.00 0.00 0.00 0.00
0.00 0.00 0.00 0.00 0.00 0.00 0.00 0.00 0.00 0.00 0.00 0.00 0.00 0.00 0.00 0.00 0.00 0.00 0.00 0.00 0.00 0.00 0.00 0.00 0.00 0.00 0.00 0.00 0.00 0.00 0.00 0.00 0.00 0.00 0.00 0.00 0.00 0.00 0.00 0.00 0.00 0.00 0.00 0.00 0.00 0.00 0.00 0.00 0.00
0.00 0.00 0.00 0.00 0.00 0.00 0.00 0.00 0.00 0.00 0.00 0.00 0.00 0.00 0.00 0.00 0.00 0.00 0.00 0.00 0.00 0.00 0.00 0.00 0.00 0.00 0.00 0.00 0.00 0.00 0.00 0.00 0.00 0.00 0.00 0.00 0.00 0.00 0.00 0.00 0.00 0.00 0.00 0.00 0.00 0.00 0.00 0.00 0.00
0.00 0.00 0.00 0.00 0.00 0.00 0.00 0.00 0.00 0.00 0.00 0.00 0.00 0.00 0.00 0.00 0.00 0.00 0.00 0.00 0.00 0.00 0.00 0.00 0.00 0.00 0.00 0.00 0.00 0.00 0.00 0.00 0.00 0.00 0.00 0.00 0.00 0.00 0.00 0.00 0.00 0.00 0.00 0.00 0.00 0.00 0.00 0.00 0.00
0.00 0.00 0.00 0.00 0.00 0.00 0.00 0.00 0.00 0.00 0.00 0.00 0.00 0.00 0.00 0.00 0.00 0.00 0.00 0.00 0.00 0.00 0.00 0.00 0.00 0.00 0.00 0.00 0.00 0.00 0.00 0.00 0.00 0.00 0.00 0.00 0.00 0.00 0.00 0.00 0.00 0.00 0.00 0.00 0.00 0.00 0.00 0.00 0.00
0.00 0.00 0.00 0.00 0.00 0.00 0.00 0.00 0.00 0.00 0.00 0.00 0.00 0.00 0.00 0.00 0.00 0.00 0.00 0.00 0.00 0.00 0.00 0.00 0.00 0.00 0.00 0.00 0.00 0.00 0.00 0.00 0.00 0.00 0.00 0.00 0.00 0.00 0.00 0.00 0.00 0.00 0.00 0.00 0.00 0.00 0.00 0.00 0.00
0.00 0.00 0.00 0.00 0.00 0.00 0.00 0.00 0.00 0.00 0.00 0.00 0.00 0.00 0.00 0.00 0.00 0.00 0.00 0.00 0.00 0.00 0.00 0.00 0.00 0.00 0.00 0.00 0.00 0.00 0.00 0.00 0.00 0.00 0.00 0.00 0.00 0.00 0.00 0.00 0.00 0.00 0.00 0.00 0.00 0.00 0.00 0.00 0.00
0.00 0.00 0.00 0.00 0.00 0.00 0.00 0.00 0.00 0.00 0.00 0.00 0.00 0.00 0.00 0.00 0.00 0.00 0.00 0.00 0.00 0.00 0.00 0.00 0.00 0.00 0.00 0.00 0.00 0.00 0.00 0.00 0.00 0.00 0.00 0.00 0.00 0.00 0.00 0.00 0.00 0.00 0.00 0.00 0.00 0.00 0.00 0.00 0.00
0.00 0.00 0.00 0.00 0.00 0.00 0.00 0.00 0.00 0.00 0.00 0.00 0.00 0.00 0.00 0.00 0.00 0.00 0.00 0.00 0.00 0.00 0.00 0.00 0.00 0.00 0.00 0.00 0.00 0.00 0.00 0.00 0.00 0.00 0.00 0.00 0.00 0.00 0.00 0.00 0.00 0.00 0.00 0.00 0.00 0.00 0.00 0.00 0.00
0.00 0.00 0.00 0.00 0.00 0.00 0.00 0.00 0.00 0.00 0.00 0.00 0.00 0.00 0.00 0.00 0.00 0.00 0.00 0.00 0.00 0.00 0.00 0.00 0.00 0.00 0.00 0.00 0.00 0.00 0.00 0.00 0.00 0.00 0.00 0.00 0.00 0.00 0.00 0.00 0.00 0.00 0.00 0.00 0.00 0.00 0.00 0.00 0.00
0.00 0.00 0.00 0.00 0.00 0.00 0.00 0.00 0.00 0.00 0.00 0.00 0.00 0.00 0.00 0.00 0.00 0.00 0.00 0.00 0.00 0.00 0.00 0.00 0.00 0.00 0.00 0.00 0.00 0.00 0.00 0.00 0.00 0.00 0.00 0.00 0.00 0.00 0.00 0.00 0.00 0.00 0.00 0.00 0.00 0.00 0.00 0.00 0.00
0.00 0.00 0.00 0.00 0.00 0.00 0.00 0.00 0.00 0.00 0.00 0.00 0.00 0.00 0.00 0.00 0.00 0.00 0.00 0.00 0.00 0.00 0.00 0.00 0.00 0.00 0.00 0.00 0.00 0.00 0.00 0.00 0.00 0.00 0.00 0.00 0.00 0.00 0.00 0.00 0.00 0.00 0.00 0.00 0.00 0.00 0.00 0.00 0.00
0.00 0.00 0.00 0.00 0.00 0.00 0.00 0.00 0.00 0.00 0.00 0.00 0.00 0.00 0.00 0.00 0.00 0.00 0.00 0.00 0.00 0.00 0.00 0.00 0.00 0.00 0.00 0.00 0.00 0.00 0.00 0.00 0.00 0.00 0.00 0.00 0.00 0.00 0.00 0.00 0.00 0.00 0.00 0.00 0.00 0.00 0.00 0.00 0.00
0.00 0.00 0.00 0.00 0.00 0.00 0.00 0.00 0.00 0.00 0.00 0.00 0.00 0.00 0.00 0.00 0.00 0.00 0.00 0.00 0.00 0.00 0.00 0.00 0.00 0.00 0.00 0.00 0.00 0.00 0.00 0.00 0.00 0.00 0.00 0.00 0.00 0.00 0.00 0.00 0.00 0.00 0.00 0.00 0.00 0.00 0.00 0.00 0.00
0.00 0.00 0.00 0.00 0.00 0.00 0.00 0.00 0.00 0.00 0.00 0.00 0.00 0.00 0.00 0.00 0.00 0.00 0.00 0.00 0.00 0.00 0.00 0.00 0.00 0.00 0.00 0.00 0.00 0.00 0.00 0.00 0.00 0.00 0.00 0.00 0.00 0.00 0.00 0.00 0.00 0.00 0.00 0.00 0.00 0.00 0.00 0.00 0.00
0.00 0.00 0.00 0.00 0.00 0.00 0.00 0.00 0.00 0.00 0.00 0.00 0.00 0.00 0.00 0.00 0.00 0.00 0.00 0.00 0.00 0.00 0.00 0.00 0.00 0.00 0.00 0.00 0.00 0.00 0.00 0.00 0.00 0.00 0.00 0.00 0.00 0.00 0.00 0.00 0.00 0.00 0.00 0.00 0.00 0.00 0.00 0.00 0.00
0.00 0.00 0.00 0.00 0.00 0.00 0.00 0.00 0.00 0.00 0.00 0.00 0.00 0.00 0.00 0.00 0.00 0.00 0.00 0.00 0.00 0.00 0.00 0.00 0.00 0.00 0.00 0.00 0.00 0.00 0.00 0.00 0.00 0.00 0.00 0.00 0.00 0.00 0.00 0.00 0.00 0.00 0.00 0.00 0.00 0.00 0.00 0.00 0.00
0.00 0.00 0.00 0.00 0.00 0.00 0.00 0.00 0.00 0.00 0.00 0.00 0.00 0.00 0.00 0.00 0.00 0.00 0.00 0.00 0.00 0.00 0.00 0.00 0.00 0.00 0.00 0.00 0.00 0.00 0.00 0.00 0.00 0.00 0.00 0.00 0.00 0.00 0.00 0.00 0.00 0.00 0.00 0.00 0.00 0.00 0.00 0.00 0.00
0.00 0.00 0.00 0.00 0.00 0.00 0.00 0.00 0.00 0.00 0.00 0.00 0.00 0.00 0.00 0.00 0.00 0.00 0.00 0.00 0.00 0.00 0.00 0.00 0.00 0.00 0.00 0.00 0.00 0.00 0.00 0.00 0.00 0.00 0.00 0.00 0.00 0.00 0.00 0.00 0.00 0.00 0.00 0.00 0.00 0.00 0.00 0.00 0.00
0.00 0.00 0.00 0.00 0.00 0.00 0.00 0.00 0.00 0.00 0.00 0.00 0.00 0.00 0.00 0.00 0.00 0.00 0.00 0.00 0.00 0.00 0.00 0.00 0.00 0.00 0.00 0.00 0.00 0.00 0.00 0.00 0.00 0.00 0.00 0.00 0.00 0.00 0.00 0.00 0.00 0.00 0.00 0.00 0.00 0.00 0.00 0.00 0.00
0.00 0.00 0.01 0.01 0.00 0.00 0.00 0.00 0.00 0.00 0.00 0.00 0.00 0.00 0.00 0.00 0.00 0.00 0.00 0.00 0.00 0.00 0.00 0.00 0.00 0.00 0.00 0.00 0.00 0.00 0.00 0.00 0.00 0.00 0.00 0.00 0.00 0.00 0.00 0.00 0.00 0.00 0.00 0.00 0.00 0.00 0.00 0.00 0.00
0.00 0.00 0.01 0.03 0.01 0.00 0.00 0.00 0.00 0.00 0.00 0.00 0.00 0.00 0.00 0.00 0.00 0.00 0.00 0.00 0.00 0.00 0.00 0.00 0.00 0.00 0.00 0.00 0.00 0.00 0.00 0.00 0.00 0.00 0.00 0.00 0.00 0.00 0.00 0.00 0.00 0.00 0.00 0.00 0.00 0.00 0.00 0.00 0.00
0.00 0.00 0.00 0.03 0.05 0.02 0.00 0.00 0.00 0.00 0.00 0.00 0.00 0.00 0.00 0.00 0.00 0.00 0.00 0.00 0.00 0.00 0.00 0.00 0.00 0.00 0.00 0.00 0.00 0.00 0.00 0.00 0.00 0.00 0.00 0.00 0.00 0.00 0.00 0.00 0.00 0.00 0.00 0.00 0.00 0.00 0.00 0.00 0.00
0.00 0.00 0.01 0.06 0.13 0.09 0.02 0.00 0.00 0.00 0.00 0.00 0.00 0.00 0.00 0.00 0.00 0.00 0.00 0.00 0.00 0.00 0.00 0.00 0.00 0.00 0.00 0.00 0.00 0.00 0.00 0.00 0.00 0.00 0.00 0.00 0.00 0.00 0.00 0.00 0.00 0.00 0.00 0.00 0.00 0.00 0.00 0.00 0.00
0.00 0.00 0.01 0.05 0.11 0.12 0.06 0.01 0.00 0.00 0.00 0.00 0.00 0.00 0.00 0.00 0.00 0.00 0.00 0.00 0.00 0.00 0.00 0.00 0.00 0.00 0.00 0.00 0.00 0.00 0.00 0.00 0.00 0.00 0.00 0.00 0.00 0.00 0.00 0.00 0.00 0.00 0.00 0.00 0.00 0.00 0.00 0.00 0.00
0.00 0.00 0.00 0.03 0.05 0.05 0.07 0.04 0.00 0.00 0.00 0.00 0.00 0.00 0.00 0.00 0.00 0.00 0.00 0.00 0.00 0.00 0.00 0.00 0.00 0.00 0.00 0.00 0.00 0.00 0.00 0.00 0.00 0.00 0.00 0.00 0.00 0.00 0.00 0.00 0.00 0.00 0.00 0.00 0.00 0.00 0.00 0.00 0.00
MSLP
1017.08 1017.35 1017.70 1018.07 1018.41 1018.67 1018.82 1018.84 1018.76 1018.60 1018.39 1018.17 1017.94 1017.69 1017.43 1017.13 1016.80 1016.44 1016.10 1015.81 1015.62 1015.57 1015.69 1015.94 1016.31 1016.74 1017.17 1017.54 1017.82 1018.03 1018.16 1018.26 1018.38 1018.52 1018.72 1018.95 1019.20 1019.43 1019.62 1019.74 1019.81 1019.83 1019.85 1019.88 1019.94 1020.03 1020.14 1020.23 1020.27
1017.30 1017.64 1018.04 1018.45 1018.80 1019.02 1019.10 1019.02 1018.81 1018.50 1018.14 1017.78 1017.44 1017.13 1016.84 1016.57 1016.30 1016.03 1015.79 1015.59 1015.49 1015.49 1015.63 1015.89 1016.24 1016.64 1017.04 1017.40 1017.68 1017.90 1018.06 1018.20 1018.35 1018.54 1018.77 1019.03 1019.30 1019.55 1019.75 1019.88 1019.96 1020.00 1020.03 1020.08 1020.16 1020.26 1020.38 1020.47 1020.51
1017.60 1017.99 1018.42 1018.84 1019.15 1019.33 1019.32 1019.13 1018.79 1018.35 1017.86 1017.39 1016.97 1016.62 1016.33 1016.10 1015.92 1015.76 1015.62 1015.53 1015.51 1015.57 1015.73 1015.98 1016.31 1016.67 1017.03 1017.36 1017.64 1017.86 1018.04 1018.21 1018.39 1018.61 1018.86 1019.14 1019.42 1019.67 1019.86 1020.00 1020.08 1020.13 1020.18 1020.24 1020.34 1020.46 1020.58 1020.68 1020.72
1017.97 1018.38 1018.81 1019.19 1019.45 1019.54 1019.44 1019.15 1018.70 1018.16 1017.58 1017.04 1016.58 1016.21 1015.95 1015.79 1015.68 1015.62 1015.60 1015.60 1015.65 1015.76 1015.94 1016.18 1016.47 1016.80 1017.12 1017.42 1017.68 1017.90 1018.10 1018.29 1018.50 1018.74 1019.01 1019.29 1019.56 1019.79 1019.98 1020.10 1020.18 1020.24 1020.30 1020.38 1020.49 1020.63 1020.77 1020.88 1020.92
1018.37 1018.78 1019.17 1019.49 1019.66 1019.66 1019.46 1019.08 1018.55 1017.94 1017.32 1016.75 1016.28 1015.93 1015.71 1015.60 1015.58 1015.60 1015.66 1015.74 1015.85 1015.99 1016.17 1016.40 1016.66 1016.95 1017.24 1017.51 1017.76 1017.99 1018.20 1018.42 1018.65 1018.90 1019.18 1019.45 1019.71 1019.92 1020.09 1020.21 1020.28 1020.34 1020.42 1020.52 1020.65 1020.81 1020.97 1021.09 1021.15
1018.77 1019.14 1019.46 1019.68 1019.74 1019.64 1019.35 1018.90 1018.33 1017.70 1017.07 1016.51 1016.07 1015.76 1015.58 1015.52 1015.55 1015.63 1015.74 1015.86 1016.00 1016.15 1016.33 1016.54 1016.78 1017.04 1017.30 1017.57 1017.82 1018.06 1018.29 1018.53 1018.78 1019.05 1019.33 1019.60 1019.85 1020.05 1020.21 1020.32 1020.39 1020.47 1020.55 1020.67 1020.82 1021.00 1021.17 1021.31 1021.39
1019.12 1019.42 1019.64 1019.74 1019.69 1019.48 1019.11 1018.62 1018.04 1017.42 1016.83 1016.31 1015.91 1015.64 1015.50 1015.47 1015.53 1015.62 1015.75 1015.88 1016.02 1016.16 1016.33 1016.52 1016.74 1016.99 1017.25 1017.51 1017.77 1018.03 1018.30 1018.57 1018.85 1019.14 1019.43 1019.71 1019.95 1020.16 1020.32 1020.43 1020.52 1020.61 1020.71 1020.84 1021.01 1021.20 1021.38 1021.54 1021.64
1019.37 1019.58 1019.68 1019.65 1019.48 1019.18 1018.76 1018.25 1017.68 1017.10 1016.57 1016.11 1015.76 1015.53 1015.41 1015.39 1015.43 1015.52 1015.62 1015.73 1015.85 1015.98 1016.13 1016.31 1016.52 1016.76 1017.03 1017.30 1017.59 1017.88 1018.18 1018.48 1018.80 1019.11 1019.43 1019.72 1019.99 1020.21 1020.39 1020.53 1020.64 1020.75 1020.88 1021.03 1021.21 1021.40 1021.59 1021.76 1021.87
1019.51 1019.61 1019.58 1019.43 1019.16 1018.78 1018.32 1017.81 1017.27 1016.75 1016.27 1015.87 1015.56 1015.35 1015.24 1015.20 1015.22 1015.27 1015.34 1015.41 1015.50 1015.61 1015.74 1015.91 1016.12 1016.37 1016.65 1016.95 1017.26 1017.58 1017.91 1018.25 1018.60 1018.95 1019.29 1019.62 1019.92 1020.18 1020.40 1020.58 1020.74 1020.89 1021.04 1021.21 1021.39 1021.59 1021.78 1021.94 1022.06
1019.52 1019.51 1019.36 1019.10 1018.75 1018.32 1017.84 1017.34 1016.84 1016.36 1015.93 1015.57 1015.28 1015.08 1014.95 1014.88 1014.86 1014.86 1014.89 1014.93 1014.98 1015.07 1015.20 1015.38 1015.59 1015.86 1016.15 1016.47 1016.81 1017.16 1017.51 1017.88 1018.25 1018.63 1019.01 1019.38 1019.73 1020.05 1020.33 1020.57 1020.79 1020.98 1021.17 1021.36 1021.56 1021.75 1021.94 1022.10 1022.21
1019.41 1019.30 1019.06 1018.72 1018.31 1017.85 1017.37 1016.88 1016.40 1015.95 1015.55 1015.20 1014.91 1014.69 1014.52 1014.41 1014.34 1014.30 1014.29 1014.30 1014.35 1014.43 1014.57 1014.75 1014.98 1015.26 1015.58 1015.91 1016.26 1016.62 1016.99 1017.37 1017.77 1018.17 1018.59 1019.01 1019.41 1019.80 1020.15 1020.47 1020.76 1021.02 1021.26 1021.48 1021.69 1021.89 1022.07 1022.22 1022.32
1019.21 1019.02 1018.72 1018.34 1017.90 1017.44 1016.96 1016.48 1016.01 1015.56 1015.14 1014.76 1014.44 1014.17 1013.95 1013.79 1013.68 1013.61 1013.57 1013.58 1013.62 1013.72 1013.87 1014.07 1014.32 1014.62 1014.95 1015.29 1015.65 1016.02 1016.39 1016.78 1017.18 1017.61 1018.06 1018.52 1018.98 1019.44 1019.87 1020.27 1020.64 1020.97 1021.26 1021.53 1021.77 1021.99 1022.17 1022.31 1022.42
1018.96 1018.72 1018.39 1018.00 1017.57 1017.12 1016.65 1016.16 1015.67 1015.18 1014.71 1014.27 1013.87 1013.53 1013.25 1013.04 1012.89 1012.80 1012.76 1012.77 1012.83 1012.95 1013.12 1013.35 1013.62 1013.94 1014.27 1014.63 1014.99 1015.36 1015.73 1016.12 1016.53 1016.97 1017.44 1017.94 1018.45 1018.97 1019.48 1019.96 1020.41 1020.82 1021.19 1021.51 1021.80 1022.04 1022.24 1022.40 1022.51
1018.69 1018.44 1018.11 1017.74 1017.34 1016.91 1016.44 1015.94 1015.39 1014.83 1014.27 1013.72 1013.23 1012.80 1012.45 1012.19 1012.01 1011.91 1011.87 1011.90 1011.99 1012.13 1012.33 1012.58 1012.87 1013.20 1013.55 1013.91 1014.28 1014.66 1015.03 1015.42 1015.84 1016.29 1016.78 1017.30 1017.86 1018.43 1019.00 1019.55 1020.08 1020.56 1021.00 1021.40 1021.74 1022.03 1022.28 1022.47 1022.61
1018.43 1018.18 1017.89 1017.57 1017.21 1016.80 1016.32 1015.77 1015.15 1014.48 1013.80 1013.14 1012.53 1012.01 1011.59 1011.29 1011.09 1010.99 1010.96 1011.01 1011.11 1011.27 1011.48 1011.75 1012.05 1012.40 1012.77 1013.15 1013.54 1013.92 1014.32 1014.72 1015.15 1015.61 1016.11 1016.65 1017.23 1017.83 1018.45 1019.05 1019.64 1020.19 1020.70 1021.17 1021.58 1021.94 1022.24 1022.49 1022.68
1018.19 1017.97 1017.73 1017.46 1017.14 1016.74 1016.23 1015.62 1014.90 1014.11 1013.30 1012.52 1011.81 1011.21 1010.74 1010.41 1010.20 1010.10 1010.09 1010.14 1010.25 1010.41 1010.62 1010.89 1011.20 1011.55 1011.94 1012.34 1012.76 1013.18 1013.61 1014.04 1014.49 1014.96 1015.47 1016.02 1016.61 1017.22 1017.86 1018.49 1019.12 1019.72 1020.29 1020.82 1021.30 1021.73 1022.11 1022.42 1022.68
1017.95 1017.78 1017.59 1017.38 1017.09 1016.68 1016.14 1015.44 1014.62 1013.71 1012.78 1011.89 1011.10 1010.46 1009.97 1009.63 1009.44 1009.35 1009.35 1009.40 1009.50 1009.63 1009.82 1010.06 1010.36 1010.71 1011.11 1011.55 1012.01 1012.48 1012.95 1013.42 1013.90 1014.39 1014.90 1015.45 1016.03 1016.63 1017.26 1017.90 1018.54 1019.17 1019.77 1020.35 1020.89 1021.38 1021.82 1022.21 1022.54
1017.73 1017.60 1017.47 1017.30 1017.02 1016.59 1015.98 1015.19 1014.26 1013.25 1012.23 1011.28 1010.46 1009.82 1009.35 1009.06 1008.90 1008.84 1008.84 1008.88 1008.95 1009.04 1009.18 1009.37 1009.64 1009.98 1010.38 1010.85 1011.35 1011.86 1012.38 1012.89 1013.40 1013.90 1014.42 1014.95 1015.51 1016.09 1016.69 1017.31 1017.94 1018.56 1019.18 1019.78 1020.35 1020.88 1021.38 1021.83 1022.22
1017.53 1017.45 1017.36 1017.21 1016.91 1016.43 1015.75 1014.87 1013.85 1012.76 1011.70 1010.74 1009.95 1009.37 1008.98 1008.77 1008.68 1008.67 1008.69 1008.71 1008.73 1008.76 1008.82 1008.94 1009.15 1009.46 1009.85 1010.32 1010.84 1011.39 1011.94 1012.49 1013.01 1013.53 1014.03 1014.54 1015.07 1015.61 1016.17 1016.75 1017.34 1017.94 1018.54 1019.12 1019.70 1020.25 1020.77 1021.25 1021.68
1017.36 1017.32 1017.26 1017.10 1016.77 1016.22 1015.45 1014.48 1013.39 1012.27 1011.22 1010.32 1009.63 1009.17 1008.92 1008.84 1008.86 1008.91 1008.95 1008.95 1008.92 1008.87 1008.84 1008.87 1009.00 1009.25 1009.60 1010.05 1010.57 1011.12 1011.68 1012.23 1012.75 1013.26 1013.74 1014.22 1014.71 1015.20 1015.71 1016.24 1016.78 1017.33 1017.88 1018.44 1018.98 1019.51 1020.02 1020.50 1020.95
1017.25 1017.26 1017.20 1017.01 1016.61 1015.97 1015.11 1014.07 1012.94 1011.83 1010.85 1010.07 1009.54 1009.26 1009.20 1009.28 1009.44 1009.58 1009.65 1009.64 1009.55 1009.42 1009.29 1009.22 1009.25 1009.40 1009.68 1010.07 1010.54 1011.06 1011.59 1012.11 1012.61 1013.08 1013.53 1013.97 1014.41 1014.86 1015.31 1015.79 1016.27 1016.76 1017.26 1017.75 1018.24 1018.73 1019.19 1019.64 1020.06
1017.23 1017.25 1017.18 1016.93 1016.45 1015.72 1014.77 1013.68 1012.55 1011.50 1010.63 1010.02 1009.70 1009.65 1009.80 1010.08 1010.37 1010.61 1010.73 1010.71 1010.57 1010.35 1010.12 1009.94 1009.85 1009.90 1010.08 1010.37 1010.76 1011.19 1011.65 1012.10 1012.53 1012.94 1013.34 1013.73 1014.13 1014.53 1014.95 1015.37 1015.80 1016.23 1016.67 1017.10 1017.52 1017.93 1018.34 1018.72 1019.09
1017.27 1017.31 1017.20 1016.88 1016.31 1015.49 1014.47 1013.36 1012.26 1011.30 1010.60 1010.19 1010.10 1010.29 1010.66 1011.12 1011.56 1011.88 1012.03 1012.00 1011.82 1011.53 1011.20 1010.91 1010.72 1010.65 1010.71 1010.88 1011.14 1011.46 1011.80 1012.15 1012.49 1012.82 1013.15 1013.49 1013.83 1014.20 1014.58 1014.96 1015.35 1015.74 1016.11 1016.47 1016.83 1017.17 1017.50 1017.82 1018.13
1017.36 1017.39 1017.23 1016.83 1016.17 1015.27 1014.22 1013.12 1012.09 1011.27 1010.75 1010.57 1010.71 1011.11 1011.68 1012.30 1012.85 1013.23 1013.40 1013.36 1013.13 1012.78 1012.38 1012.00 1011.70 1011.52 1011.46 1011.50 1011.63 1011.80 1012.01 1012.22 1012.44 1012.67 1012.92 1013.19 1013.49 1013.82 1014.17 1014.53 1014.88 1015.23 1015.56 1015.87 1016.17 1016.45 1016.73 1016.98 1017.23
1017.43 1017.42 1017.20 1016.72 1015.99 1015.05 1014.00 1012.96 1012.05 1011.40 1011.08 1011.11 1011.46 1012.05 1012.77 1013.50 1014.11 1014.52 1014.68 1014.61 1014.34 1013.94 1013.48 1013.04 1012.67 1012.40 1012.23 1012.15 1012.14 1012.16 1012.22 1012.29 1012.38 1012.49 1012.65 1012.85 1013.10 1013.38 1013.70 1014.03 1014.37 1014.69 1014.98 1015.26 1015.52 1015.76 1016.00 1016.22 1016.42
1017.40 1017.34 1017.04 1016.50 1015.73 1014.79 1013.80 1012.86 1012.11 1011.66 1011.54 1011.78 1012.30 1013.03 1013.84 1014.61 1015.23 1015.61 1015.74 1015.63 1015.32 1014.88 1014.40 1013.92 1013.51 1013.19 1012.94 1012.76 1012.63 1012.52 1012.43 1012.36 1012.31 1012.30 1012.36 1012.47 1012.66 1012.90 1013.17 1013.47 1013.78 1014.07 1014.35 1014.61 1014.85 1015.08 1015.29 1015.50 1015.70
1017.20 1017.07 1016.71 1016.12 1015.35 1014.47 1013.58 1012.81 1012.26 1012.02 1012.11 1012.52 1013.18 1013.99 1014.83 1015.58 1016.15 1016.46 1016.53 1016.36 1016.02 1015.57 1015.08 1014.61 1014.20 1013.86 1013.57 1013.33 1013.10 1012.88 1012.66 1012.46 1012.28 1012.15 1012.09 1012.11 1012.21 1012.38 1012.61 1012.86 1013.13 1013.39 1013.65 1013.89 1014.13 1014.36 1014.58 1014.80 1015.01
1016.82 1016.60 1016.18 1015.58 1014.86 1014.08 1013.36 1012.79 1012.47 1012.46 1012.75 1013.31 1014.06 1014.90 1015.71 1016.39 1016.85 1017.07 1017.04 1016.82 1016.45 1016.00 1015.54 1015.11 1014.74 1014.42 1014.13 1013.86 1013.58 1013.28 1012.96 1012.64 1012.34 1012.09 1011.91 1011.83 1011.83 1011.91 1012.05 1012.23 1012.44 1012.66 1012.88 1013.11 1013.34 1013.58 1013.83 1014.08 1014.32
1016.27 1015.97 1015.52 1014.94 1014.30 1013.67 1013.15 1012.83 1012.75 1012.96 1013.44 1014.12 1014.92 1015.74 1016.47 1017.03 1017.36 1017.46 1017.34 1017.06 1016.67 1016.25 1015.84 1015.48 1015.18 1014.91 1014.66 1014.40 1014.09 1013.74 1013.34 1012.93 1012.53 1012.16 1011.87 1011.66 1011.55 1011.51 1011.55 1011.63 1011.76 1011.91 1012.08 1012.28 1012.50 1012.75 1013.02 1013.30 1013.58
1015.68 1015.30 1014.83 1014.30 1013.78 1013.33 1013.03 1012.95 1013.11 1013.53 1014.15 1014.91 1015.72 1016.48 1017.10 1017.52 1017.72 1017.69 1017.49 1017.16 1016.77 1016.39 1016.06 1015.78 1015.57 1015.38 1015.18 1014.95 1014.64 1014.26 1013.82 1013.33 1012.84 1012.38 1011.97 1011.64 1011.40 1011.24 1011.14 1011.11 1011.13 1011.19 1011.29 1011.43 1011.63 1011.86 1012.14 1012.45 1012.76
Thickness
5738 5739 5741 5739 5727 5717 5715 5720 5721 5720 5723 5727 5724 5723 5724 5725 5723 5722 5734 5736 5736 5733 5729 5724 5721 5717 5714 5712 5710 5708 5707 5706 5705 5703 5702 5701 5700 5699 5698 5698 5698 5698 5699 5698 5698 5698 5698 5700 5701
5739 5740 5739 5732 5717 5711 5719 5724 5722 5724 5727 5726 5725 5724 5724 5731 5735 5737 5736 5733 5732 5730 5728 5725 5721 5718 5715 5713 5710 5708 5707 5706 5705 5704 5702 5701 5699 5698 5697 5696 5696 5696 5696 5696 5696 5695 5695 5696 5697
5739 5740 5732 5723 5712 5714 5719 5727 5728 5728 5729 5727 5728 5729 5730 5735 5738 5738 5736 5732 5729 5727 5725 5723 5720 5718 5715 5713 5711 5709 5707 5706 5704 5703 5702 5700 5698 5697 5696 5695 5695 5694 5694 5694 5693 5693 5693 5693 5693
5739 5734 5727 5717 5710 5719 5722 5731 5729 5728 5729 5727 5727 5730 5735 5741 5741 5738 5733 5730 5727 5725 5722 5720 5717 5715 5713 5712 5710 5708 5707 5705 5703 5702 5700 5699 5697 5696 5695 5694 5693 5693 5692 5692 5691 5691 5691 5690 5690
5737 5728 5715 5710 5711 5722 5727 5727 5722 5724 5728 5728 5726 5729 5735 5741 5738 5735 5732 5729 5726 5723 5720 5717 5714 5712 5711 5709 5708 5706 5705 5703 5701 5700 5698 5697 5695 5694 5693 5692 5692 5691 5690 5690 5689 5688 5688 5688 5688
5728 5723 5710 5709 5715 5721 5726 5725 5723 5724 5726 5725 5723 5725 5736 5740 5736 5733 5730 5727 5724 5721 5717 5715 5712 5710 5708 5706 5705 5704 5702 5700 5698 5697 5696 5694 5692 5691 5690 5689 5689 5688 5687 5687 5686 5685 5685 5685 5685
5723 5716 5710 5708 5709 5716 5723 5724 5723 5726 5725 5727 5728 5725 5737 5740 5733 5729 5727 5725 5721 5718 5715 5713 5711 5708 5706 5704 5702 5701 5699 5697 5695 5694 5692 5690 5688 5687 5686 5685 5684 5684 5683 5682 5681 5681 5680 5680 5680
5725 5717 5706 5705 5707 5714 5723 5721 5723 5724 5727 5730 5727 5726 5734 5737 5727 5725 5723 5721 5719 5716 5714 5712 5710 5708 5705 5703 5701 5699 5697 5695 5693 5690 5688 5686 5684 5682 5681 5680 5680 5679 5678 5677 5676 5675 5675 5674 5674
5719 5709 5705 5707 5708 5717 5722 5719 5724 5726 5725 5723 5727 5735 5741 5728 5724 5722 5720 5718 5717 5716 5715 5713 5710 5708 5706 5703 5700 5697 5695 5693 5690 5687 5685 5682 5680 5678 5676 5675 5674 5673 5672 5670 5669 5669 5668 5668 5668
5710 5705 5712 5717 5719 5720 5719 5717 5722 5722 5721 5723 5727 5733 5731 5725 5722 5723 5723 5722 5720 5720 5718 5715 5712 5709 5706 5703 5700 5697 5694 5692 5688 5686 5682 5679 5677 5675 5672 5670 5668 5667 5665 5664 5663 5662 5661 5661 5662
5706 5708 5715 5715 5714 5711 5710 5712 5717 5716 5720 5727 5730 5735 5735 5726 5722 5723 5726 5728 5728 5726 5721 5717 5714 5711 5707 5704 5701 5698 5694 5691 5688 5685 5681 5677 5674 5670 5668 5665 5663 5661 5659 5658 5656 5655 5655 5655 5655
5700 5708 5709 5711 5706 5702 5704 5708 5710 5714 5726 5735 5734 5733 5732 5728 5726 5725 5727 5729 5729 5726 5724 5720 5716 5712 5709 5705 5702 5699 5695 5691 5687 5683 5679 5675 5672 5669 5666 5662 5659 5656 5654 5652 5650 5649 5648 5647 5647
5695 5704 5705 5705 5699 5699 5698 5701 5704 5720 5729 5730 5728 5724 5725 5728 5730 5730 5728 5727 5725 5723 5722 5720 5715 5713 5709 5705 5703 5699 5696 5691 5687 5682 5678 5674 5671 5667 5664 5660 5655 5653 5649 5646 5644 5642 5641 5639 5639
5695 5696 5699 5699 5696 5693 5691 5703 5702 5723 5726 5723 5721 5722 5725 5726 5728 5729 5727 5724 5722 5722 5719 5716 5713 5711 5707 5705 5703 5700 5696 5691 5687 5682 5678 5673 5670 5665 5661 5656 5652 5648 5645 5642 5639 5637 5634 5633 5631
5682 5684 5696 5703 5695 5691 5682 5691 5709 5721 5717 5715 5721 5726 5726 5727 5726 5727 5728 5726 5723 5721 5717 5714 5711 5707 5706 5705 5702 5699 5696 5691 5687 5682 5676 5672 5668 5663 5657 5653 5648 5644 5639 5635 5632 5629 5627 5625 5624
5673 5672 5679 5703 5689 5681 5678 5690 5721 5715 5707 5713 5721 5726 5726 5730 5732 5731 5726 5723 5722 5721 5719 5717 5711 5708 5706 5703 5701 5698 5694 5690 5686 5680 5675 5670 5665 5660 5654 5649 5644 5638 5634 5630 5627 5623 5621 5619 5617
5663 5665 5672 5687 5689 5676 5670 5682 5708 5705 5699 5707 5716 5720 5723 5729 5734 5729 5722 5720 5720 5721 5720 5716 5712 5708 5705 5700 5696 5693 5689 5686 5682 5678 5674 5668 5662 5656 5651 5646 5641 5634 5629 5625 5622 5618 5616 5613 5610
5665 5663 5660 5665 5681 5665 5659 5669 5687 5699 5696 5703 5712 5718 5722 5725 5725 5719 5714 5715 5717 5718 5717 5714 5710 5705 5699 5693 5688 5686 5683 5680 5675 5673 5669 5664 5659 5653 5647 5642 5636 5630 5625 5621 5616 5611 5607 5606 5601
5659 5652 5653 5662 5670 5654 5658 5664 5671 5684 5692 5701 5711 5718 5722 5719 5714 5709 5707 5707 5708 5708 5707 5706 5703 5698 5692 5688 5683 5680 5679 5675 5670 5666 5662 5657 5653 5648 5642 5638 5631 5626 5622 5617 5612 5606 5600 5596 5592
5637 5635 5644 5654 5657 5640 5648 5656 5665 5675 5685 5697 5705 5711 5708 5703 5701 5697 5695 5694 5694 5694 5695 5695 5694 5690 5685 5681 5676 5672 5670 5668 5664 5658 5654 5649 5644 5639 5635 5632 5627 5622 5618 5612 5607 5602 5597 5592 5588
5632 5630 5641 5641 5642 5634 5629 5646 5653 5667 5678 5687 5693 5692 5689 5686 5684 5682 5679 5677 5677 5678 5679 5680 5682 5681 5677 5671 5666 5661 5657 5656 5654 5650 5645 5639 5633 5629 5626 5625 5621 5617 5615 5611 5605 5599 5596 5592 5584
5626 5635 5627 5619 5612 5623 5617 5630 5643 5656 5668 5679 5682 5677 5672 5668 5664 5661 5660 5658 5658 5658 5661 5664 5666 5666 5664 5660 5656 5652 5649 5647 5645 5640 5635 5629 5623 5619 5616 5614 5613 5610 5608 5605 5600 5595 5592 5590 5583
5617 5611 5607 5605 5603 5606 5604 5607 5645 5638 5644 5658 5657 5651 5648 5644 5640 5637 5635 5635 5635 5638 5642 5645 5647 5648 5647 5645 5641 5639 5637 5635 5633 5630 5625 5619 5613 5608 5605 5604 5603 5601 5599 5598 5593 5588 5585 5583 5582
5598 5594 5593 5589 5591 5600 5615 5606 5633 5631 5637 5639 5631 5622 5617 5615 5613 5610 5610 5611 5613 5616 5620 5623 5626 5627 5627 5627 5626 5624 5623 5621 5620 5617 5614 5610 5605 5600 5596 5594 5593 5592 5590 5588 5586 5581 5576 5574 5574
5583 5583 5578 5582 5587 5604 5598 5594 5617 5628 5624 5615 5606 5595 5589 5585 5584 5584 5586 5589 5590 5592 5595 5598 5602 5604 5605 5606 5606 5606 5605 5605 5604 5603 5602 5600 5597 5593 5589 5585 5583 5582 5580 5577 5574 5571 5569 5566 5565
5573 5575 5563 5557 5574 5594 5579 5583 5606 5607 5599 5589 5580 5569 5562 5560 5558 5557 5558 5561 5563 5566 5569 5573 5576 5577 5579 5582 5584 5586 5586 5587 5587 5587 5587 5587 5586 5583 5579 5575 5573 5572 5569 5566 5563 5561 5560 5558 5557
5559 5560 5564 5547 5542 5549 5579 5594 5591 5587 5578 5565 5554 5547 5540 5536 5533 5534 5535 5535 5537 5540 5543 5546 5549 5551 5554 5557 5560 5562 5565 5567 5569 5569 5569 5569 5570 5569 5566 5562 5560 5559 5558 5556 5553 5551 5550 5548 5548
5550 5550 5533 5527 5526 5536 5564 5582 5590 5579 5564 5546 5534 5525 5518 5514 5512 5512 5512 5513 5514 5516 5518 5521 5524 5525 5527 5530 5534 5537 5540 5543 5546 5549 5550 5551 5552 5552 5551 5549 5546 5545 5545 5543 5541 5542 5541 5539 5539
5531 5526 5526 5520 5517 5521 5532 5563 5571 5556 5540 5524 5509 5500 5495 5492 5492 5492 5492 5492 5492 5493 5496 5498 5499 5500 5503 5506 5509 5513 5515 5518 5522 5525 5528 5531 5533 5534 5534 5533 5532 5532 5531 5530 5529 5530 5531 5530 5530
5531 5532 5527 5516 5517 5519 5521 5541 5536 5520 5506 5495 5484 5477 5472 5471 5472 5473 5473 5473 5473 5474 5474 5474 5475 5476 5478 5481 5484 5488 5491 5495 5498 5501 5504 5508 5512 5514 5516 5516 5518 5518 5517 5517 5517 5518 5518 5521 5520